Sheldon, IA

8:35 AM CDT on April 19, 2018 (GMT -0500)
Sheldon Municipal

Weather History for KSHL - June, 2012

Change the Weather History Date:

Friday, June 22, 2012

  Actual Average Record
Temperature  
Mean Temperature 68 °F -  
Max Temperature 82 °F 80 °F 94 °F (1988)
Min Temperature 53 °F 57 °F 42 °F (1960)
Cooling Degree Days 2    
Growing Degree Days 18 (Base 50)    
Moisture  
Dew Point 55 °F    
Average Humidity 64    
Maximum Humidity 94    
Minimum Humidity 37    
Precipitation  
Precipitation 0.00 in - - ()
Sea Level Pressure  
Sea Level Pressure 30.03 in    
Wind  
Wind Speed 4 mph (South)    
Max Wind Speed 13 mph    
Max Gust Speed 18 mph    
Visibility 10 miles    
Events      
Averages and records for this station are not official NWS values.
T = Trace of Precipitation, MM = Missing Value Source: NWS Daily Summary

Daily Weather History Graph

Daily Weather History Graph

Search for Another Location

Airport or City:

Astronomy

Jun. 22, 2012 Rise Set
Actual Time 5:43 AM CDT 9:07 PM CDT
Civil Twilight 5:08 AM CDT 9:42 PM CDT
Nautical Twilight 4:21 AM CDT 10:29 PM CDT
Astronomical Twilight 3:23 AM CDT 11:26 PM CDT
Moon 8:49 AM CDT (6/22) 10:58 PM CDT (6/22)
Length of Visible Light 16h 34m
Length of Day
15h 23m
Waxing Crescent, 9% of the Moon is Illuminated
Jun 22
Waxing Crescent
Jun 26
First Quarter
Jul 3
Full
Jul 10
Last Quarter
Jul 18
New

Hourly Weather History & Observations

Time (CDT) Temp. Heat Index Dew Point Humidity Pressure Visibility Wind Dir Wind Speed Gust Speed Precip Events Conditions
12:15 AM 59.0 °F - 51.8 °F 77% 30.07 in 10.0 mi Calm Calm - N/A   Clear
12:35 AM 59.0 °F - 53.6 °F 82% 30.07 in 10.0 mi Calm Calm - N/A   Clear
12:55 AM 57.2 °F - 51.8 °F 82% 30.07 in 10.0 mi Calm Calm - N/A   Clear
1:15 AM 55.4 °F - 51.8 °F 88% 30.07 in 10.0 mi Calm Calm - N/A   Clear
1:35 AM 55.4 °F - 51.8 °F 88% 30.07 in 10.0 mi Calm Calm - N/A   Clear
2:15 AM 55.4 °F - 51.8 °F 88% 30.06 in 10.0 mi Calm Calm - N/A   Clear
2:35 AM 53.6 °F - 51.8 °F 94% 30.06 in 10.0 mi SSE 4.6 mph - N/A   Clear
2:55 AM 53.6 °F - 50.0 °F 88% 30.06 in 10.0 mi SE 3.5 mph - N/A   Clear
3:15 AM 53.6 °F - 50.0 °F 88% 30.06 in 10.0 mi SSE 3.5 mph - N/A   Clear
3:35 AM 53.6 °F - 50.0 °F 88% 30.06 in 10.0 mi Calm Calm - N/A   Clear
3:55 AM 53.6 °F - 50.0 °F 88% 30.06 in 10.0 mi Calm Calm - N/A   Clear
4:15 AM 53.6 °F - 50.0 °F 88% 30.06 in 10.0 mi Calm Calm - N/A   Clear
4:35 AM 53.6 °F - 50.0 °F 88% 30.07 in 10.0 mi Calm Calm - N/A   Clear
4:55 AM 55.4 °F - 50.0 °F 82% 30.07 in 10.0 mi Calm Calm - N/A   Clear
5:15 AM 55.4 °F - 51.8 °F 88% 30.06 in 10.0 mi Calm Calm - N/A   Partly Cloudy
5:35 AM 53.6 °F - 50.0 °F 88% 30.07 in 10.0 mi Calm Calm - N/A   Mostly Cloudy
5:55 AM 53.6 °F - 51.8 °F 94% 30.07 in 10.0 mi ENE 3.5 mph - N/A   Partly Cloudy
6:15 AM 53.6 °F - 51.8 °F 94% 30.07 in 10.0 mi Calm Calm - N/A   Scattered Clouds
6:35 AM 57.2 °F - 53.6 °F 88% 30.07 in 9.0 mi Calm Calm - N/A   Partly Cloudy
6:55 AM 57.2 °F - 55.4 °F 94% 30.08 in 9.0 mi Calm Calm - N/A   Mostly Cloudy
7:15 AM 59.0 °F - 53.6 °F 82% 30.08 in 10.0 mi Calm Calm - N/A   Mostly Cloudy
7:35 AM 59.0 °F - 55.4 °F 88% 30.09 in 10.0 mi Calm Calm - N/A   Partly Cloudy
7:55 AM 60.8 °F - 55.4 °F 82% 30.08 in 10.0 mi Calm Calm - N/A   Partly Cloudy
8:15 AM 60.8 °F - 55.4 °F 82% 30.09 in 10.0 mi Calm Calm - N/A   Partly Cloudy
8:35 AM 62.6 °F - 55.4 °F 77% 30.09 in 10.0 mi Calm Calm - N/A   Clear
8:55 AM 66.2 °F - 55.4 °F 68% 30.09 in 10.0 mi Calm Calm - N/A   Partly Cloudy
9:15 AM 68.0 °F - 55.4 °F 64% 30.09 in 10.0 mi SW 3.5 mph - N/A   Mostly Cloudy
9:35 AM 68.0 °F - 57.2 °F 68% 30.09 in - Calm Calm - N/A   Scattered Clouds
10:15 AM 73.4 °F - 59.0 °F 61% 30.09 in 10.0 mi SW 6.9 mph - N/A   Partly Cloudy
10:35 AM 75.2 °F - 57.2 °F 53% 30.08 in 10.0 mi WSW 10.4 mph - N/A   Clear
10:55 AM 73.4 °F - 55.4 °F 53% 30.07 in 10.0 mi SW 12.7 mph - N/A   Partly Cloudy
11:15 AM 75.2 °F - 57.2 °F 53% 30.08 in 10.0 mi West 12.7 mph - N/A   Partly Cloudy
11:35 AM 77.0 °F - 57.2 °F 50% 30.07 in 10.0 mi WSW 10.4 mph - N/A   Clear
11:55 AM 77.0 °F - 57.2 °F 50% 30.07 in 10.0 mi SW 9.2 mph 15.0 mph N/A   Clear
12:15 PM 77.0 °F - 57.2 °F 50% 30.07 in 10.0 mi SW 9.2 mph - N/A   Clear
12:35 PM 78.8 °F - 57.2 °F 47% 30.07 in 10.0 mi WSW 5.8 mph 12.7 mph N/A   Clear
12:55 PM 78.8 °F - 55.4 °F 44% 30.06 in 10.0 mi Variable 4.6 mph 11.5 mph N/A   Clear
1:15 PM 78.8 °F - 57.2 °F 47% 30.06 in 10.0 mi Variable 6.9 mph - N/A   Clear
1:35 PM 78.8 °F - 57.2 °F 47% 30.05 in 10.0 mi West 5.8 mph - N/A   Clear
1:55 PM 80.6 °F 80.8 °F 57.2 °F 45% 30.05 in 10.0 mi Calm Calm - N/A   Clear
2:15 PM 80.6 °F 80.8 °F 57.2 °F 45% 30.04 in 10.0 mi Variable 4.6 mph - N/A   Clear
2:35 PM 80.6 °F 80.5 °F 55.4 °F 42% 30.03 in 10.0 mi NW 4.6 mph - N/A   Mostly Cloudy
2:55 PM 80.6 °F 80.5 °F 55.4 °F 42% 30.02 in 10.0 mi Variable 3.5 mph - N/A   Overcast
3:15 PM 82.4 °F 81.7 °F 55.4 °F 39% 30.01 in 10.0 mi Variable 5.8 mph - N/A   Scattered Clouds
3:35 PM 82.4 °F 81.7 °F 55.4 °F 39% 30.00 in 10.0 mi Variable 6.9 mph - N/A   Clear
3:55 PM 82.4 °F 81.4 °F 53.6 °F 37% 30.00 in 10.0 mi Variable 6.9 mph 13.8 mph N/A   Clear
4:15 PM 82.4 °F 82.0 °F 57.2 °F 42% 29.99 in 10.0 mi SE 9.2 mph - N/A   Mostly Cloudy
4:35 PM 82.4 °F 81.7 °F 55.4 °F 39% 29.99 in 10.0 mi SSE 9.2 mph - N/A   Mostly Cloudy
4:55 PM 82.4 °F 82.0 °F 57.2 °F 42% 29.99 in 10.0 mi South 11.5 mph - N/A   Mostly Cloudy
5:15 PM 82.4 °F 82.0 °F 57.2 °F 42% 29.97 in 10.0 mi South 10.4 mph - N/A   Mostly Cloudy
5:35 PM 82.4 °F 81.7 °F 55.4 °F 39% 29.97 in 10.0 mi South 12.7 mph - N/A   Partly Cloudy
5:55 PM 80.6 °F 80.5 °F 55.4 °F 42% 29.97 in 10.0 mi SSE 11.5 mph - N/A   Clear
6:15 PM 80.6 °F 80.5 °F 55.4 °F 42% 29.97 in 10.0 mi SSE 12.7 mph - N/A   Clear
6:35 PM 80.6 °F 80.5 °F 55.4 °F 42% 29.96 in 10.0 mi South 12.7 mph 18.4 mph N/A   Clear
6:55 PM 80.6 °F 80.5 °F 55.4 °F 42% 29.96 in 10.0 mi South 12.7 mph - N/A   Clear
7:15 PM 78.8 °F - 57.2 °F 47% 29.96 in 10.0 mi SSE 12.7 mph - N/A   Clear
7:35 PM 78.8 °F - 57.2 °F 47% 29.96 in 10.0 mi SSE 12.7 mph - N/A   Clear
7:55 PM 78.8 °F - 57.2 °F 47% 29.95 in 10.0 mi SSE 11.5 mph - N/A   Clear
8:15 PM 77.0 °F - 57.2 °F 50% 29.96 in 10.0 mi SSE 8.1 mph 15.0 mph N/A   Clear
8:35 PM 75.2 °F - 57.2 °F 53% 29.96 in 10.0 mi SSE 9.2 mph - N/A   Clear
8:55 PM 73.4 °F - 59.0 °F 61% 29.95 in 10.0 mi SSE 8.1 mph - N/A   Clear
9:15 PM 73.4 °F - 59.0 °F 61% 29.95 in 10.0 mi SSE 8.1 mph - N/A   Clear
9:35 PM 71.6 °F - 59.0 °F 64% 29.94 in 10.0 mi SE 9.2 mph - N/A   Clear
9:55 PM 69.8 °F - 59.0 °F 68% 29.94 in 10.0 mi SE 6.9 mph - N/A   Clear
10:15 PM 69.8 °F - 59.0 °F 68% 29.94 in 10.0 mi SE 9.2 mph - N/A   Clear
10:35 PM 69.8 °F - 59.0 °F 68% 29.95 in 10.0 mi SE 10.4 mph - N/A   Clear
10:55 PM 69.8 °F - 59.0 °F 68% 29.94 in 10.0 mi SE 9.2 mph - N/A   Clear
11:15 PM 68.0 °F - 59.0 °F 73% 29.94 in 10.0 mi SSE 9.2 mph - N/A   Clear
11:35 PM 68.0 °F - 57.2 °F 68% 29.94 in 10.0 mi SSE 8.1 mph - N/A   Clear
11:55 PM 68.0 °F - 57.2 °F 68% 29.94 in 10.0 mi SSE 9.2 mph - N/A   Clear